Home > Weather > Ansfelden > Past weeks

Flag for Austria Past Weather in Ansfelden, Upper Austria, Austria — Yesterday and Last 2 Weeks

Now
79 °F

Passing clouds.


Feels Like: 81 °F
Forecast: 60 / 73 °F
Wind: N/A

Location: Linz / Hoersching-Flughafen

Current Time: Jun 25, 2016 at 10:47:55 AM

Latest Report: Jun 25, 2016 at 10:00 AM


Visibility: 9 mi

Pressure: 29.85 "Hg

Humidity: 61%

Dew Point: 65 °F

Location of AnsfeldenLocation

Past Weather in Ansfelden — Graph

°F

Ansfelden Temperature Yesterday

Maximum temperature yesterday: 92 °F (at 4:00 PM)
Minimum temperature yesterday: 65 °F (at 6:00 AM)
Average temperature yesterday: 79 °F

High & Low Weather Summary for the Past Weeks

 TemperatureHumidityPressure
High92 °F (Jun 24, 4:00 PM)100% (Jun 21, 6:00 AM)30.29 "Hg (Jun 21, 6:00 AM)
Low53 °F (Jun 21, 2:00 AM)32% (Jun 24, 5:00 PM)29.44 "Hg (Jun 16, 5:00 PM)
Average66 °F74%29.92 "Hg
* Reported Jun 10 9:00 AM — Jun 25 9:00 AM, Ansfelden, Weather by CustomWeather, © 2016

Note: Actual official high and low records may vary slightly from our data, if they occured in-between our weather recording intervals... More about our weather records

Advertising

Ansfelden Weather History for the Previous 24 Hours

Scroll right to see more
 ConditionsComfort  
Time TempWeatherWind HumidityBarometerVisibility
9:00 AM
Sat, Jun 25
77 °FScattered clouds.N/A68%29.87 "Hg9 mi
8:00 AM74 °FScattered clouds.N/A73%29.87 "Hg11 mi
7:00 AM71 °FPassing clouds.N/A81%29.86 "Hg9 mi
6:00 AM67 °FPassing clouds.N/A90%29.88 "Hg7 mi
5:00 AM67 °FPassing clouds.N/A90%29.89 "Hg8 mi
4:00 AM68 °FPassing clouds.N/A91%29.89 "Hg7 mi
3:00 AM70 °FMild.N/A85%29.90 "Hg10 mi
2:00 AM72 °FMild.N/A80%29.90 "Hg14 mi
1:00 AM74 °FMild.N/A74%29.90 "Hg14 mi
12:00 AM74 °FMild.N/A71%29.90 "Hg19 mi
11:00 PM
Fri, Jun 24
77 °FPassing clouds.N/A60%29.90 "Hg19 mi
10:00 PM79 °FPassing clouds.N/A55%29.90 "Hg22 mi
9:00 PM86 °FPleasantly warm.N/A36%29.90 "Hg25 mi
6:00 PM90 °FPassing clouds.N/A40%29.90 "Hg19 mi
5:00 PM91 °FPassing clouds.N/A32%29.92 "Hg16 mi
4:00 PM92 °FPassing clouds.N/A35%29.93 "Hg18 mi
3:00 PM90 °FPassing clouds.N/A39%29.95 "Hg11 mi
2:00 PM89 °FPassing clouds.N/A44%29.96 "Hg13 mi
1:00 PM86 °FPassing clouds.N/A48%29.98 "Hg12 mi
12:00 PM83 °FPassing clouds.N/A53%30.01 "Hg14 mi
11:00 AM82 °FSunny.N/A56%30.02 "Hg17 mi
10:00 AM80 °FSunny.N/A60%30.03 "Hg15 mi
Weather by CustomWeather, © 2016

See weather overviewHow to use our weather pages